Hourly Data Report for October 03, 2017

All times are specified in Local Standard Time (LST). Add 1 hour to adjust for Daylight Saving Time where and when it is observed.

BRANDON A
MANITOBA

49°54'36.000" N
99°57'08.000" W
409.30 m
5010481
71140
YBR

Download Data

Hourly Data (October 2017)
Hourly Data Report for October 3, 2017
Temp Definition
°C
Dew Point Temp Definition
°C
Rel Hum Definition
%
Wind Dir Definition
10's deg

Wind Spd Definition
km/h
Visibility Definition
km
Stn Press Definition
kPa
Hmdx Definition


Wind Chill Definition


Weather Definition


TIME
00:00 Legend Double Dagger 1.2 -0.8 87 20 4 24.1 96.36     Mainly Clear
01:00 Legend Double Dagger -0.9 -2.4 90 36 3 24.1 96.29   -2 LegendNANA
02:00 Legend Double Dagger 1.1 -0.5 89 16 9 24.1 96.51     LegendNANA
03:00 Legend Double Dagger -1.6 -2.7 92 36 3 24.1 96.44   -3 Mainly Clear
04:00 Legend Double Dagger -0.6 -2.0 91 26 7 24.1 96.51   -3 LegendNANA
05:00 Legend Double Dagger -1.8 -2.4 96 29 8 24.1 96.56   -5 LegendNANA
06:00 Legend Double Dagger -1.3 -2.2 94 32 9 24.1 96.63   -5 Cloudy
07:00 Legend Double Dagger -0.2 -0.8 95 24 6 24.1 96.72   -2 LegendNANA
08:00 Legend Double Dagger 0.9 0.1 94 33 6 24.1 96.75     LegendNANA
09:00 Legend Double Dagger 3.2 1.6 89 27 9 24.1 96.78     Mostly Cloudy
10:00 Legend Double Dagger 5.6 1.9 77 25 12 24.1 96.81     LegendNANA
11:00 Legend Double Dagger 7.2 1.7 68 23 10 24.1 96.89     LegendNANA
12:00 Legend Double Dagger 8.3 0.1 56 23 5 24.1 96.93     Mostly Cloudy
13:00 Legend Double Dagger 8.7 1.2 59 26 7 24.1 96.92     LegendNANA
14:00 Legend Double Dagger 9.2 0.4 54 19 12 24.1 96.97     LegendNANA
15:00 Legend Double Dagger 9.3 0.8 55 24 9 24.1 97.01     Cloudy
16:00 Legend Double Dagger 9.4 0.4 53 26 20 24.1 97.03     LegendNANA
17:00 Legend Double Dagger 8.7 0.4 56 24 22 24.1 97.10     LegendNANA
18:00 Legend Double Dagger 6.7 0.7 65 26 11 24.1 97.14     Mostly Cloudy
19:00 Legend Double Dagger 5.4 1.0 73 26 13 24.1 97.18     LegendNANA
20:00 Legend Double Dagger 5.6 1.3 74 26 16 24.1 97.23     LegendNANA
21:00 Legend Double Dagger 5.0 1.3 77 25 14 24.1 97.25     Mostly Cloudy
22:00 Legend Double Dagger 5.5 2.0 78 26 14 24.1 97.25     LegendNANA
23:00 Legend Double Dagger 6.2 4.1 86 28 17 24.1 97.26     LegendNANA

Notes on Data Quality.

Legend

  • E = Estimated
  • M = Missing
  • NA = Not Available
  • ‡ = Partner data that is not subject to review by the National Climate Archives
Date modified: